����,�C�@��,���@�x,���@��,���@��,���@��,�ϐ�[,�ϐ�d��1,�ϐ�d��2,�ϐ�d��3,�J�@��,�~��o��,�~�ይ�x�i��j,�~�ይ�x�i���j,�~�ይ�x�i���j,���,�Z��~����1,�Z��~����2,�Z��~����3,�Z��~����4,�J�ᔻ��,�Z���T���x
����,��,��,kw/�u,��,m/s,cm,kg/�u,kg/�u,kg/�u,mm,1=�L_0=��,1=�L_0=��,1=�L_0=��,1=�L_0=��,p,p,p,p,p,��,��
2021-04-01 00:00:00,6.33,82.90,0.000,210.60,0.11,0.4,0.89,0.00,-340.92,0.0,0,0,0,0,0,0.00,0.00,0.00,0.00,4.52,-208.30
2021-04-01 00:10:00,6.25,82.90,0.000,222.30,0.11,0.4,5.63,0.00,-339.91,0.0,0,0,0,0,0,0.00,0.00,0.00,0.00,4.44,-210.10
2021-04-01 00:20:00,6.33,82.60,0.000,202.10,0.12,0.4,5.63,0.00,-337.88,0.0,0,0,0,0,0,0.00,0.00,0.00,0.00,4.48,-211.70
2021-04-01 00:30:00,6.33,82.40,0.000,199.60,0.08,0.4,4.95,0.00,-342.93,0.0,0,0,0,0,0,0.00,0.00,0.00,0.00,4.31,-211.60
2021-04-01 00:40:00,6.08,82.70,0.000,161.20,0.13,0.5,1.56,0.00,-344.30,0.0,0,0,0,0,0,0.00,0.00,0.00,0.00,4.27,-212.10
2021-04-01 00:50:00,6.04,83.10,0.000,205.10,0.14,0.5,6.30,0.00,-341.93,0.0,0,0,0,0,0,0.00,0.00,0.00,0.00,4.19,-210.50
2021-04-01 01:00:00,5.92,83.40,0.000,188.30,0.13,0.5,0.88,0.00,-342.26,0.0,0,0,0,0,0,0.00,0.00,0.00,0.00,3.98,-207.90
2021-04-01 01:10:00,5.75,83.60,0.000,181.40,0.19,0.7,2.24,0.00,-342.60,0.0,0,0,0,0,0,0.00,0.00,0.00,0.00,3.98,-210.60
2021-04-01 01:20:00,5.59,84.10,0.000,205.10,0.12,0.6,4.95,0.00,-341.58,0.0,0,0,0,0,0,0.00,0.00,0.00,0.00,3.78,-209.80
2021-04-01 01:30:00,5.51,84.00,0.000,196.10,0.09,0.6,5.96,0.00,-340.23,0.0,0,0,0,0,0,0.00,0.00,0.00,0.00,3.82,-208.10
2021-04-01 01:40:00,5.42,84.10,0.000,198.50,0.09,0.7,4.61,0.00,-339.90,0.0,0,0,0,0,0,0.00,0.00,0.00,0.00,3.74,-210.10
2021-04-01 01:50:00,5.34,84.60,0.000,185.10,0.15,0.7,4.95,0.00,-338.87,0.0,0,0,0,0,0,0.00,0.00,0.00,0.00,3.62,-209.60
2021-04-01 02:00:00,5.18,84.80,0.000,185.80,0.08,0.7,0.88,0.00,-338.19,0.0,0,0,0,0,0,0.00,0.00,0.00,0.00,3.45,-209.50
2021-04-01 02:10:00,5.09,84.80,0.000,204.70,0.11,0.7,5.28,0.00,-338.53,0.0,0,0,0,0,0,0.00,0.00,0.00,0.00,3.37,-210.40
2021-04-01 02:20:00,5.01,84.80,0.001,203.00,0.12,0.8,5.62,0.00,-336.84,0.0,0,0,0,0,0,0.00,0.00,0.00,0.00,3.45,-211.20
2021-04-01 02:30:00,5.01,85.10,0.000,196.30,0.09,0.8,4.27,0.00,-336.50,0.0,0,0,0,0,0,0.00,0.00,0.00,0.00,3.37,-210.80
2021-04-01 02:40:00,4.93,85.20,0.000,199.30,0.19,0.8,1.22,0.00,-341.58,0.0,0,0,0,0,0,0.00,0.00,0.00,0.00,3.33,-209.70
2021-04-01 02:50:00,5.09,85.30,0.000,200.80,0.11,0.8,5.62,0.00,-341.23,0.0,0,0,0,0,0,0.00,0.00,0.00,0.00,3.33,-210.00
2021-04-01 03:00:00,4.93,85.50,0.000,179.90,0.13,0.8,4.27,0.00,-341.58,0.0,0,0,0,0,0,0.00,0.00,0.00,0.00,3.20,-210.60
2021-04-01 03:10:00,4.81,85.60,0.000,208.40,0.06,0.8,0.88,0.00,-338.19,0.0,0,0,0,0,0,0.00,0.00,0.00,0.00,2.96,-210.00
2021-04-01 03:20:00,4.76,85.70,0.000,185.70,0.11,0.8,0.88,0.00,-340.56,0.0,0,0,0,0,0,0.00,0.00,0.00,0.00,3.16,-209.10
2021-04-01 03:30:00,4.85,85.70,0.000,193.90,0.19,0.8,1.56,0.00,-341.23,0.0,0,0,0,0,0,0.00,0.00,0.00,0.00,3.04,-207.70
2021-04-01 03:40:00,4.60,85.60,0.000,0.00,0.10,0.8,0.88,0.00,-342.93,0.0,0,0,0,0,0,0.00,0.00,0.00,0.00,3.00,-207.40
2021-04-01 03:50:00,4.52,85.50,0.000,219.20,0.17,0.8,2.91,0.00,-342.25,0.0,0,0,0,0,0,0.00,0.00,0.00,0.00,2.79,-206.70
2021-04-01 04:00:00,4.52,85.50,0.000,194.60,0.16,0.8,1.56,0.00,-342.25,0.0,0,0,0,0,0,0.00,0.00,0.00,0.00,2.87,-206.40
2021-04-01 04:10:00,4.39,85.90,0.000,209.10,0.25,0.8,0.88,0.00,-341.91,0.0,0,0,0,0,0,0.00,0.00,0.00,0.00,2.75,-204.90
2021-04-01 04:20:00,4.27,85.90,0.000,200.20,0.07,0.8,4.94,0.00,-340.22,0.0,0,0,0,0,0,0.00,0.00,0.00,0.00,2.63,-204.00
2021-04-01 04:30:00,4.35,85.80,0.000,208.50,0.09,1.0,5.62,0.00,-339.54,0.0,0,0,0,0,0,0.00,0.00,0.00,0.00,2.71,-205.10
2021-04-01 04:40:00,4.23,85.70,0.000,197.00,0.08,1.0,0.88,0.00,-339.20,0.0,0,0,0,0,0,0.00,0.00,0.00,0.00,2.51,-203.20
2021-04-01 04:50:00,4.15,86.00,0.000,207.00,0.12,1.0,5.62,0.00,-342.25,0.0,0,0,0,0,0,0.00,0.00,0.00,0.00,2.51,-203.30
2021-04-01 05:00:00,3.94,85.90,0.000,173.80,0.17,1.0,4.27,0.00,-338.86,0.0,0,0,0,0,0,0.00,0.00,0.00,0.00,2.34,-204.10
2021-04-01 05:10:00,3.90,86.20,0.000,167.50,0.09,1.0,5.96,0.00,-355.45,0.0,0,0,0,0,0,0.00,0.00,0.00,0.00,2.18,-204.80
2021-04-01 05:20:00,3.78,86.30,0.001,220.70,0.12,1.0,5.62,0.00,-342.25,0.0,0,0,0,0,0,0.00,0.00,0.00,0.00,2.01,-204.30
2021-04-01 05:30:00,3.86,86.60,0.004,182.10,0.09,1.0,5.62,0.00,-340.89,0.0,0,0,0,0,0,0.00,0.00,0.00,0.00,2.09,-205.40
2021-04-01 05:40:00,3.70,86.50,0.011,196.80,0.09,1.0,4.94,0.00,-342.25,0.0,0,0,0,0,0,0.00,0.00,0.00,0.00,2.14,-204.70
2021-04-01 05:50:00,3.70,86.70,0.022,181.70,0.10,1.0,1.22,0.00,-340.56,0.0,0,0,0,0,0,0.00,0.00,0.00,0.00,2.18,-203.20
2021-04-01 06:00:00,3.78,86.80,0.032,191.80,0.07,1.0,5.62,0.00,-339.54,0.0,0,0,0,0,0,0.00,0.00,0.00,0.00,2.39,-205.90
2021-04-01 06:10:00,3.78,86.80,0.043,187.60,0.07,1.0,4.94,0.00,-338.52,0.0,0,0,0,0,0,0.00,0.00,0.00,0.00,2.59,-205.70
2021-04-01 06:20:00,4.11,86.60,0.055,197.70,0.08,1.0,6.30,0.00,-337.85,0.0,0,0,0,0,0,0.00,0.00,0.00,0.00,2.92,-202.70
2021-04-01 06:30:00,4.15,86.10,0.122,189.10,0.12,0.9,1.56,0.00,-353.76,0.0,0,0,0,0,0,0.00,0.00,0.00,0.00,3.25,-201.90
2021-04-01 06:40:00,4.36,85.50,0.161,193.60,0.11,0.8,5.62,0.00,-341.57,0.0,0,0,0,0,0,0.00,0.00,0.00,0.00,3.58,-201.50
2021-04-01 06:50:00,4.69,85.20,0.195,206.10,0.08,0.8,2.91,0.00,-339.88,0.0,0,0,0,0,0,0.00,0.00,0.00,0.00,4.07,-200.10
2021-04-01 07:00:00,5.06,84.50,0.227,211.90,0.07,0.8,2.91,0.00,-340.22,0.0,0,0,0,0,0,0.00,0.00,0.00,0.00,4.48,-201.10
2021-04-01 07:10:00,5.47,84.00,0.262,197.30,0.09,0.8,2.23,0.00,-339.20,0.0,0,0,0,0,0,0.00,0.00,0.00,0.00,4.94,-199.80
2021-04-01 07:20:00,5.92,82.30,0.301,216.90,0.13,0.7,6.30,0.00,-336.49,0.0,0,0,0,0,0,0.00,0.00,0.00,0.00,5.51,-199.60
2021-04-01 07:30:00,6.08,80.70,0.336,209.30,0.11,0.7,2.23,0.00,-335.48,0.0,0,0,0,0,0,0.00,0.00,0.00,0.00,5.92,-199.40
2021-04-01 07:40:00,6.82,79.86,0.376,213.70,0.20,0.5,2.91,0.00,-335.48,0.0,0,0,0,0,0,0.00,0.00,0.00,0.00,6.58,-198.30
2021-04-01 07:50:00,7.07,77.12,0.409,183.60,0.17,0.4,1.56,0.00,-332.77,0.0,0,0,0,0,0,0.00,0.00,0.00,0.00,7.07,-199.00
2021-04-01 08:00:00,7.56,74.54,0.442,217.40,0.10,0.4,2.91,0.00,-335.14,0.0,0,0,0,0,0,0.00,0.00,0.00,0.00,7.69,-199.10
2021-04-01 08:10:00,8.18,73.26,0.480,182.20,0.20,0.3,6.30,0.00,-334.12,0.0,0,0,0,0,0,0.00,0.00,0.00,0.00,9.75,-198.10
2021-04-01 08:20:00,8.80,71.60,0.517,152.20,0.09,0.3,5.62,0.00,-333.45,0.0,0,0,0,0,0,0.00,0.00,0.00,0.00,14.98,-199.10
2021-04-01 08:30:00,9.17,69.60,0.548,178.70,0.08,0.0,1.56,0.00,-331.42,0.0,0,0,0,0,0,0.00,0.00,0.00,0.00,16.26,-197.60
2021-04-01 08:40:00,9.79,65.84,0.580,173.00,0.11,0.0,2.91,0.00,-329.38,0.0,0,0,0,0,0,0.00,0.00,0.00,0.00,17.83,-195.40
2021-04-01 08:50:00,10.53,64.69,0.616,168.00,0.08,0.0,5.62,0.00,-327.69,0.0,0,0,0,0,0,0.00,0.00,0.00,0.00,18.58,-196.80
2021-04-01 09:00:00,11.02,61.65,0.641,153.80,0.10,0.0,0.20,0.00,-325.66,0.0,0,0,0,0,0,0.00,0.00,0.00,0.00,19.03,-201.20
2021-04-01 09:10:00,11.19,60.97,0.665,239.70,0.08,0.0,0.88,0.00,-321.94,0.0,0,0,0,0,0,0.00,0.00,0.00,0.00,20.73,-205.00
2021-04-01 09:20:00,11.60,60.53,0.692,137.40,0.18,0.0,1.22,0.00,-321.61,0.0,0,0,0,0,0,0.00,0.00,0.00,0.00,21.85,-205.80
2021-04-01 09:30:00,11.93,59.75,0.716,195.20,0.11,0.0,0.88,0.00,-320.59,0.0,0,0,0,0,0,0.00,0.00,0.00,0.00,22.55,-207.40
2021-04-01 09:40:00,12.09,56.67,0.741,202.40,0.32,0.0,4.95,0.00,-329.41,0.0,0,0,0,0,0,0.00,0.00,0.00,0.00,20.97,-206.90
2021-04-01 09:50:00,12.08,54.98,0.772,179.00,0.13,0.0,0.55,0.00,-319.60,0.0,0,0,0,0,0,0.00,0.00,0.00,0.00,23.07,-207.40
2021-04-01 10:00:00,12.44,53.19,0.787,286.20,0.12,0.0,-0.12,0.00,-316.56,0.0,0,0,0,0,0,0.00,0.00,0.00,0.00,21.73,-209.40
2021-04-01 10:10:00,13.46,49.97,0.808,90.50,0.29,0.0,3.94,0.00,-313.51,0.0,0,0,0,0,0,0.00,0.00,0.00,0.00,22.18,-210.40
2021-04-01 10:20:00,13.95,48.35,0.825,101.10,0.24,0.0,0.56,0.00,-311.49,0.0,0,0,0,0,0,0.00,0.00,0.00,0.00,23.50,-196.50
2021-04-01 10:30:00,13.70,47.54,0.834,176.60,0.25,0.0,0.22,0.00,-308.44,0.0,0,0,0,0,0,0.00,0.00,0.00,0.00,22.83,-206.20
2021-04-01 10:40:00,13.49,46.93,0.864,162.10,0.33,0.0,1.57,0.00,-307.77,0.0,0,0,0,0,0,0.00,0.00,0.00,0.00,22.13,-204.10
2021-04-01 10:50:00,13.94,46.52,0.863,240.40,0.33,0.0,4.28,0.00,-305.06,0.0,0,0,0,0,0,0.00,0.00,0.00,0.00,22.41,-203.10
2021-04-01 11:00:00,13.85,45.37,0.887,206.40,0.62,0.0,0.22,0.00,-304.38,0.0,0,0,0,0,0,0.00,0.00,0.00,0.00,17.27,-205.70
2021-04-01 11:10:00,14.17,45.98,0.891,349.70,0.24,0.0,2.93,0.00,-302.01,0.0,0,0,0,0,0,0.00,0.00,0.00,0.00,15.04,-206.60
2021-04-01 11:20:00,14.83,44.25,0.904,341.40,0.21,0.0,1.57,0.00,-301.00,0.0,0,0,0,0,0,0.00,0.00,0.00,0.00,15.78,-206.90
2021-04-01 11:30:00,15.50,41.54,0.892,45.42,0.19,0.0,3.61,0.00,-298.63,0.0,0,0,0,0,0,0.00,0.00,0.00,0.00,16.57,-207.60
2021-04-01 11:40:00,15.00,42.19,0.885,174.40,0.34,0.0,-0.12,0.00,-295.58,0.0,0,0,0,0,0,0.00,0.00,0.00,0.00,16.23,-208.10
2021-04-01 11:50:00,15.16,42.53,0.896,221.60,0.25,0.0,4.28,0.00,-292.87,0.0,0,0,0,0,0,0.00,0.00,0.00,0.00,16.43,-206.90
2021-04-01 12:00:00,14.75,45.03,0.900,236.40,0.21,0.0,0.90,0.00,-291.18,0.0,0,0,0,0,0,0.00,0.00,0.00,0.00,16.72,-208.10
2021-04-01 12:10:00,15.25,45.03,0.915,216.10,0.17,0.0,0.90,0.00,-290.16,0.0,0,0,0,0,0,0.00,0.00,0.00,0.00,16.86,-207.60
2021-04-01 12:20:00,15.65,45.54,0.217,1.14,0.72,0.0,1.57,0.00,-289.15,0.0,0,0,0,0,0,0.00,0.00,0.00,0.00,16.02,-211.20
2021-04-01 12:30:00,15.40,47.60,0.912,350.20,0.62,0.0,1.57,0.00,-289.49,0.0,0,0,0,0,0,0.00,0.00,0.00,0.00,15.73,-212.40
2021-04-01 12:40:00,16.06,44.49,0.892,335.80,0.88,0.0,3.61,0.00,-296.60,0.0,0,0,0,0,0,0.00,0.00,0.00,0.00,16.47,-213.30
2021-04-01 12:50:00,16.47,43.68,0.864,286.30,0.61,0.0,0.22,0.00,-293.90,0.0,0,0,0,0,0,0.00,0.00,0.00,0.00,17.83,-213.70
2021-04-01 13:00:00,16.47,43.61,0.845,324.70,1.06,0.0,3.61,0.00,-292.90,0.0,0,0,0,0,0,0.00,0.00,0.00,0.00,20.27,-213.90
2021-04-01 13:10:00,16.30,44.76,0.835,332.10,1.14,0.0,2.26,0.00,-292.22,0.0,0,0,0,0,0,0.00,23.00,0.00,0.00,21.88,-214.30
2021-04-01 13:20:00,16.18,45.51,0.828,317.00,0.22,0.0,-0.11,0.00,-294.60,0.0,0,0,0,0,0,0.00,0.00,0.00,0.00,21.76,-215.50
2021-04-01 13:30:00,16.27,45.14,0.784,344.60,1.35,0.0,-0.44,0.00,-294.95,0.0,0,0,0,0,0,0.00,0.00,0.00,0.00,20.15,-215.80
2021-04-01 13:40:00,16.14,46.05,0.705,351.50,1.47,0.0,3.62,0.00,-295.97,0.0,0,0,0,0,0,0.00,0.00,0.00,0.00,18.82,-215.80
2021-04-01 13:50:00,15.81,46.50,0.693,0.00,1.54,0.0,1.59,0.00,-299.02,0.0,0,0,0,0,0,0.00,0.00,0.00,0.00,17.05,-216.40
2021-04-01 14:00:00,16.23,44.56,0.716,333.30,0.80,0.0,-0.10,0.00,-305.45,0.0,0,0,0,0,0,0.00,0.00,0.00,0.00,16.85,-216.80
2021-04-01 14:10:00,16.19,44.19,0.679,343.90,0.55,0.0,0.91,0.00,-303.08,0.0,0,0,0,0,0,0.00,0.00,0.00,0.00,16.60,-216.90
2021-04-01 14:20:00,16.06,43.79,0.637,330.00,1.27,0.0,3.62,0.00,-304.10,0.0,0,0,0,0,0,0.00,0.00,0.00,0.00,16.10,-217.30
2021-04-01 14:30:00,16.81,40.84,0.640,325.90,1.13,0.0,4.30,0.00,-304.77,0.0,0,0,0,0,0,0.00,0.00,0.00,0.00,16.97,-217.70
2021-04-01 14:40:00,16.39,39.05,0.618,0.00,1.85,0.0,4.98,0.00,-305.45,0.0,0,0,0,0,0,0.00,0.00,0.00,0.00,16.48,-217.60
2021-04-01 14:50:00,16.23,38.33,0.572,332.00,1.83,0.0,2.27,0.00,-305.79,0.0,0,0,0,0,0,0.00,0.00,0.00,0.00,16.23,-218.20
2021-04-01 15:00:00,16.14,36.67,0.544,337.50,1.97,0.0,0.24,0.00,-308.50,0.0,0,0,0,0,0,0.00,0.00,0.00,0.00,16.31,-218.40
2021-04-01 15:10:00,15.85,37.45,0.509,331.70,1.58,0.0,-0.44,0.00,-308.84,0.0,0,0,0,0,0,0.00,0.00,0.00,0.00,16.06,-218.70
2021-04-01 15:20:00,15.85,38.71,0.476,344.50,1.80,0.0,4.30,0.00,-311.55,0.0,0,0,0,0,0,0.00,0.00,0.00,0.00,16.22,-218.90
2021-04-01 15:30:00,15.57,40.91,0.447,342.80,1.95,0.0,1.59,0.00,-312.22,0.0,0,0,0,0,0,0.00,0.00,0.00,0.00,15.48,-218.70
2021-04-01 15:40:00,15.74,40.16,0.410,358.70,1.46,0.0,4.64,0.00,-323.40,0.0,0,0,0,0,0,0.00,0.00,0.00,0.00,15.66,-218.60
2021-04-01 15:50:00,15.12,40.94,0.391,346.20,2.05,0.0,0.58,0.00,-315.61,0.0,0,0,0,0,0,0.00,0.00,0.00,0.00,15.08,-218.80
2021-04-01 16:00:00,15.12,40.84,0.350,351.50,1.38,0.0,4.98,0.00,-321.03,0.0,0,0,0,0,0,0.00,0.00,0.00,0.00,15.08,-217.70
2021-04-01 16:10:00,14.82,40.67,0.238,0.00,1.63,0.0,4.98,0.00,-321.03,0.0,0,0,0,0,0,0.00,0.00,0.00,0.00,14.82,-218.70
2021-04-01 16:20:00,14.54,41.69,0.206,344.60,1.08,0.0,0.91,0.00,-324.07,0.0,0,0,0,0,0,0.00,0.00,0.00,25.00,14.41,-218.50
2021-04-01 16:30:00,14.50,40.47,0.247,0.00,1.04,0.0,0.91,0.00,-325.42,0.0,0,0,0,0,0,0.00,0.00,0.00,0.00,14.50,-219.50
2021-04-01 16:40:00,14.66,39.65,0.214,344.30,1.50,0.0,1.93,0.00,-326.10,0.0,0,0,0,0,0,0.00,0.00,0.00,0.00,14.58,-218.60
2021-04-01 16:50:00,14.45,39.04,0.170,340.40,1.12,0.0,5.65,0.00,-339.64,0.0,0,0,0,0,0,0.00,0.00,0.00,0.00,14.33,-220.10
2021-04-01 17:00:00,14.25,41.17,0.136,0.00,1.39,0.0,2.94,0.00,-342.67,0.0,0,0,0,0,0,0.00,0.00,0.00,0.00,15.69,-221.90
2021-04-01 17:10:00,14.08,41.21,0.105,357.50,0.25,0.0,0.22,0.00,-333.51,0.0,0,0,0,0,0,0.00,0.00,0.00,0.00,14.20,-222.40
2021-04-01 17:20:00,13.75,44.52,0.077,359.60,0.48,0.0,4.96,0.00,-333.17,0.0,0,0,0,0,0,0.00,0.00,0.00,0.00,13.25,-222.60
2021-04-01 17:30:00,13.27,45.17,0.040,0.00,1.10,0.0,4.28,0.00,-334.52,0.0,0,0,0,0,0,0.00,0.00,0.00,0.00,12.56,-220.40
2021-04-01 17:40:00,13.10,47.91,0.027,359.90,0.64,0.0,1.58,0.00,-334.86,0.0,0,0,0,0,0,0.00,0.00,0.00,0.00,12.11,-221.90
2021-04-01 17:50:00,12.70,51.23,0.017,0.00,1.01,0.0,0.22,0.00,-335.53,0.0,0,0,0,0,0,0.00,0.00,0.00,0.00,11.63,-222.40
2021-04-01 18:00:00,12.42,52.41,0.006,3.60,0.47,0.0,0.22,0.00,-336.21,0.0,0,0,0,0,0,0.00,0.00,0.00,0.00,11.26,-221.00
2021-04-01 18:10:00,12.13,53.06,0.000,356.80,0.66,0.0,0.90,0.00,-335.53,0.0,0,0,0,0,0,0.00,0.00,0.00,0.00,10.97,-219.80
2021-04-01 18:20:00,11.88,54.65,0.000,357.60,0.85,0.0,3.61,0.00,-337.23,0.0,0,0,0,0,0,0.00,0.00,0.00,0.00,10.57,-218.70
2021-04-01 18:30:00,11.72,55.97,0.000,0.00,1.27,0.0,4.96,0.00,-339.26,0.0,0,0,0,0,0,0.00,0.00,0.00,0.00,10.40,-217.70
2021-04-01 18:40:00,11.43,57.42,0.000,0.00,1.36,0.0,1.57,0.00,-340.61,0.0,0,0,0,0,0,0.00,0.00,0.00,0.00,10.23,-215.80
2021-04-01 18:50:00,11.31,58.71,0.000,8.35,1.50,0.0,5.64,0.00,-340.95,0.0,0,0,0,0,0,0.00,0.00,0.00,0.00,10.03,-213.60
2021-04-01 19:00:00,11.06,59.52,0.000,3.22,0.81,0.0,0.22,0.00,-340.61,0.0,0,0,0,0,0,0.00,0.00,0.00,0.00,9.82,-214.30
2021-04-01 19:10:00,10.94,59.90,0.000,0.00,1.44,0.0,0.22,0.00,-340.27,0.0,0,0,0,0,0,0.00,0.00,0.00,0.00,9.58,-213.50
2021-04-01 19:20:00,10.65,60.34,0.000,0.00,0.69,0.0,5.30,0.00,-339.94,0.0,0,0,0,0,0,0.00,0.00,0.00,0.00,9.50,-212.20
2021-04-01 19:30:00,10.53,60.64,0.000,0.00,0.89,0.0,4.96,0.00,-338.58,0.0,0,0,0,0,0,0.00,0.00,0.00,0.00,9.21,-211.80
2021-04-01 19:40:00,10.45,60.64,0.000,3.01,0.37,0.0,4.96,0.00,-338.92,0.0,0,0,0,0,0,0.00,0.00,0.00,0.00,9.01,-211.30
2021-04-01 19:50:00,10.33,60.84,0.000,0.00,0.35,0.0,5.30,0.00,-338.58,0.0,0,0,0,0,0,0.00,0.00,0.00,0.00,8.85,-211.70
2021-04-01 20:00:00,10.25,61.25,0.000,0.00,0.59,0.0,4.96,0.00,-337.57,0.0,0,0,0,0,0,0.00,0.00,0.00,0.00,8.77,-211.60
2021-04-01 20:10:00,10.18,61.49,0.000,18.03,0.26,0.0,4.96,0.00,-336.21,0.0,0,0,0,0,0,0.00,0.00,0.00,0.00,8.45,-212.20
2021-04-01 20:20:00,10.07,62.06,0.000,0.30,0.20,0.0,4.96,0.00,-335.87,0.0,0,0,0,0,0,0.00,0.00,0.00,0.00,8.46,-211.20
2021-04-01 20:30:00,9.86,62.74,0.000,0.00,0.19,0.0,1.57,0.00,-340.61,0.0,0,0,0,0,0,0.00,0.00,0.00,0.00,8.42,-210.40
2021-04-01 20:40:00,9.79,62.98,0.000,356.90,0.22,0.0,3.61,0.00,-342.31,0.0,0,0,0,0,0,0.00,0.00,0.00,0.00,8.22,-208.30
2021-04-01 20:50:00,9.74,62.94,0.001,359.90,0.20,0.0,0.22,0.00,-340.95,0.0,0,0,0,0,0,0.00,0.00,0.00,0.00,8.38,-209.40
2021-04-01 21:00:00,9.62,63.45,0.000,8.06,0.31,0.0,3.61,0.00,-341.29,0.0,0,0,0,0,0,0.00,0.00,0.00,0.00,8.18,-209.30
2021-04-01 21:10:00,9.37,64.40,0.000,0.56,0.28,0.0,0.56,0.00,-339.26,0.0,0,0,0,0,0,0.00,0.00,0.00,0.00,7.89,-207.70
2021-04-01 21:20:00,9.37,64.77,0.000,13.18,0.45,0.0,1.57,0.00,-340.95,0.0,0,0,0,0,0,0.00,0.00,0.00,0.00,7.85,-208.70
2021-04-01 21:30:00,9.29,65.11,0.000,9.05,0.38,0.0,3.61,0.00,-339.94,0.0,0,0,0,0,0,0.00,0.00,0.00,0.00,7.60,-207.90
2021-04-01 21:40:00,9.13,65.55,0.000,0.00,0.35,0.0,2.25,0.00,-338.58,0.0,0,0,0,0,0,0.00,0.00,0.00,0.00,7.73,-209.30
2021-04-01 21:50:00,8.96,65.85,0.000,6.86,0.20,0.0,0.22,0.00,-343.66,0.0,0,0,0,0,0,0.00,0.00,0.00,0.00,7.52,-203.00
2021-04-01 22:00:00,8.96,66.33,0.000,15.89,0.20,0.0,2.93,0.00,-343.66,0.0,0,0,0,0,0,0.00,0.00,0.00,0.00,7.40,-208.80
2021-04-01 22:10:00,9.00,66.50,0.001,356.30,0.37,0.0,5.30,0.00,-342.64,0.0,0,0,0,0,0,0.00,0.00,0.00,0.00,7.56,-209.70
2021-04-01 22:20:00,8.96,66.46,0.000,356.00,0.26,0.0,0.89,0.00,-342.97,0.0,0,0,0,0,0,0.00,0.00,0.00,0.00,7.61,-209.00
2021-04-01 22:30:00,8.68,66.97,0.000,12.76,0.25,0.0,4.96,0.00,-340.61,0.0,0,0,0,0,0,0.00,0.00,0.00,0.00,6.99,-208.40
2021-04-01 22:40:00,8.63,67.75,0.000,137.90,0.25,0.0,3.60,0.00,-339.93,0.0,0,0,0,0,0,0.00,0.00,0.00,0.00,6.62,-207.40
2021-04-01 22:50:00,7.89,69.31,0.000,155.80,0.21,0.0,0.89,0.00,-339.93,0.0,0,0,0,0,0,0.00,0.00,0.00,0.00,6.00,-209.40
2021-04-01 23:00:00,7.77,70.25,0.000,196.30,0.23,0.0,0.90,0.00,-339.59,0.0,0,0,0,0,0,0.00,0.00,0.00,0.00,5.80,-208.90
2021-04-01 23:10:00,7.56,71.27,0.000,188.30,0.26,0.0,5.63,0.00,-340.26,0.0,0,0,0,0,0,0.00,0.00,0.00,0.00,5.71,-207.70
2021-04-01 23:20:00,7.40,72.38,0.000,141.20,0.26,0.0,0.55,0.00,-356.17,0.0,0,0,0,0,0,0.00,0.00,0.00,0.00,5.51,-206.80
2021-04-01 23:30:00,7.07,74.25,0.000,157.70,0.30,0.0,4.95,0.00,-344.31,0.0,0,0,0,0,0,0.00,0.00,0.00,0.00,5.47,-204.50
2021-04-01 23:40:00,6.99,75.26,0.000,183.60,0.30,0.0,1.57,0.00,-343.99,0.0,0,0,0,0,0,0.00,0.00,0.00,0.00,5.26,-208.90
2021-04-01 23:50:00,6.82,75.50,0.000,158.40,0.26,0.1,5.29,0.00,-341.27,0.0,0,0,0,0,0,0.00,0.00,0.00,0.00,5.14,-207.50
2021-04-02 00:00:00,6.74,76.88,0.000,168.80,0.26,0.1,2.92,0.00,-342.61,0.0,0,0,0,0,0,0.00,0.00,0.00,0.00,4.97,-205.20
2021-04-02 00:10:00,6.58,78.89,0.000,193.70,0.27,0.1,5.63,0.00,-341.95,0.0,0,0,0,0,0,0.00,0.00,0.00,0.00,4.77,-207.50
2021-04-02 00:20:00,6.33,79.83,0.000,190.00,0.31,0.3,5.29,0.00,-342.62,0.0,0,0,0,0,0,0.00,0.00,0.00,0.00,4.73,-207.90
2021-04-02 00:30:00,6.08,81.20,0.000,199.40,0.23,0.3,2.25,0.00,-358.54,0.0,0,0,0,0,0,0.00,0.00,0.00,0.00,4.44,-206.50
2021-04-02 00:40:00,5.92,82.10,0.000,218.80,0.21,0.3,0.89,0.00,-343.63,0.0,0,0,0,0,0,0.00,0.00,0.00,0.00,4.23,-207.50
2021-04-02 00:50:00,5.71,82.90,0.000,207.10,0.28,0.4,6.30,0.00,-344.98,0.0,0,0,0,0,0,0.00,0.00,0.00,0.00,4.19,-207.90
2021-04-02 01:00:00,5.63,83.20,0.000,214.10,0.22,0.4,0.21,0.00,-343.28,0.0,0,0,0,0,0,0.00,0.00,0.00,0.00,3.98,-205.40
2021-04-02 01:10:00,5.83,82.80,0.001,201.90,0.26,0.7,6.30,0.00,-344.29,0.0,0,0,0,0,0,0.00,0.00,0.00,0.00,4.23,-208.70
2021-04-02 01:20:00,5.75,82.30,0.000,199.60,0.22,0.5,5.63,0.00,-342.27,0.0,0,0,0,0,0,0.00,0.00,0.00,0.00,4.11,-208.90
2021-04-02 01:30:00,5.67,82.50,0.000,189.90,0.32,0.5,4.95,0.00,-336.50,0.0,0,0,0,0,0,0.00,0.00,0.00,0.00,3.98,-209.40
2021-04-02 01:40:00,5.71,82.70,0.000,241.40,0.29,0.5,5.62,0.00,-340.90,0.0,0,0,0,0,0,0.00,0.00,0.00,0.00,3.78,-208.40
2021-04-02 01:50:00,5.59,82.60,0.000,207.10,0.23,0.7,0.88,0.00,-340.56,0.0,0,0,0,0,0,0.00,0.00,0.00,0.00,3.82,-208.70
2021-04-02 02:00:00,5.67,82.60,0.000,200.60,0.27,0.7,6.30,0.00,-339.21,0.0,0,0,0,0,0,0.00,0.00,0.00,0.00,3.82,-207.40
2021-04-02 02:10:00,5.55,82.30,0.000,158.90,0.23,0.7,4.94,0.00,-338.19,0.0,0,0,0,0,0,0.00,0.00,0.00,0.00,3.82,-207.70
2021-04-02 02:20:00,5.42,82.50,0.000,194.10,0.22,0.7,1.56,0.00,-340.23,0.0,0,0,0,0,0,0.00,0.00,0.00,0.00,3.53,-208.00
2021-04-02 02:30:00,5.42,82.30,0.000,202.40,0.22,0.7,5.62,0.00,-337.51,0.0,0,0,0,0,0,0.00,0.00,0.00,0.00,3.78,-206.80
2021-04-02 02:40:00,5.59,82.40,0.000,208.40,0.21,0.7,5.62,0.00,-343.27,0.0,0,0,0,0,0,0.00,0.00,0.00,0.00,3.66,-207.20
2021-04-02 02:50:00,5.34,82.30,0.000,176.50,0.19,0.7,1.56,0.00,-343.94,0.0,0,0,0,0,0,0.00,0.00,0.00,0.00,3.70,-206.90
2021-04-02 03:00:00,5.09,82.50,0.000,187.80,0.20,0.7,5.62,0.00,-342.94,0.0,0,0,0,0,0,0.00,0.00,0.00,0.00,3.49,-205.80
2021-04-02 03:10:00,5.09,82.90,0.000,182.10,0.19,0.7,2.91,0.00,-340.22,0.0,0,0,0,0,0,0.00,0.00,0.00,0.00,3.37,-207.90
2021-04-02 03:20:00,4.93,83.50,0.000,196.80,0.15,0.7,5.62,0.00,-341.92,0.0,0,0,0,0,0,0.00,0.00,0.00,0.00,3.24,-207.40
2021-04-02 03:30:00,4.93,84.00,0.000,204.70,0.16,0.8,4.94,0.00,-341.58,0.0,0,0,0,0,0,0.00,0.00,0.00,0.00,3.24,-207.40
2021-04-02 03:40:00,4.93,83.80,0.000,186.60,0.20,0.8,5.62,0.00,-340.89,0.0,0,0,0,0,0,0.00,0.00,0.00,0.00,3.20,-207.70
2021-04-02 03:50:00,4.76,83.60,0.000,158.10,0.18,0.8,0.88,0.00,-358.50,0.0,0,0,0,0,0,0.00,0.00,0.00,0.00,3.04,-206.60
2021-04-02 04:00:00,4.76,84.20,0.000,185.40,0.14,0.8,5.62,0.00,-344.96,0.0,0,0,0,0,0,0.00,0.00,0.00,0.00,3.08,-205.20
2021-04-02 04:10:00,4.60,84.40,0.000,208.10,0.21,0.8,1.56,0.00,-343.60,0.0,0,0,0,0,0,0.00,0.00,0.00,0.00,2.79,-205.60
2021-04-02 04:20:00,4.44,84.50,0.000,197.00,0.22,0.8,1.56,0.00,-342.92,0.0,0,0,0,0,0,0.00,0.00,0.00,0.00,2.71,-204.70
2021-04-02 04:30:00,4.43,84.60,0.000,193.10,0.20,0.8,5.62,0.00,-341.57,0.0,0,0,0,0,0,0.00,0.00,0.00,0.00,2.67,-205.20
2021-04-02 04:40:00,4.27,84.40,0.000,151.20,0.21,0.8,0.88,0.00,-342.59,0.0,0,0,0,0,0,0.00,0.00,0.00,0.00,2.71,-204.00
2021-04-02 04:50:00,4.35,84.50,0.000,182.30,0.12,0.8,5.96,0.00,-342.25,0.0,0,0,0,0,0,0.00,0.00,0.00,0.00,2.71,-202.80
2021-04-02 05:00:00,4.35,84.60,0.000,161.70,0.19,0.8,0.88,0.00,-357.48,0.0,0,0,0,0,0,0.00,0.00,0.00,0.00,2.59,-203.50
2021-04-02 05:10:00,4.19,84.90,0.000,203.70,0.13,1.0,4.94,0.00,-358.51,0.0,0,0,0,0,0,0.00,0.00,0.00,0.00,2.59,-205.00
2021-04-02 05:20:00,4.23,84.10,0.002,191.50,0.18,1.0,6.30,0.00,-344.62,0.0,0,0,0,0,0,0.00,0.00,0.00,0.00,2.75,-204.80
2021-04-02 05:30:00,4.11,84.40,0.004,154.20,0.18,1.0,4.94,0.00,-343.60,0.0,0,0,0,0,0,0.00,0.00,0.00,0.00,2.59,-203.20
2021-04-02 05:40:00,4.11,84.30,0.012,169.70,0.19,0.8,4.27,0.00,-343.26,0.0,0,0,0,0,0,0.00,0.00,0.00,0.00,2.51,-203.40
2021-04-02 05:50:00,4.06,84.80,0.025,146.10,0.18,0.8,1.56,0.00,-341.23,0.0,0,0,0,0,0,0.00,0.00,0.00,0.00,2.67,-202.60
2021-04-02 06:00:00,4.10,85.50,0.036,110.60,0.19,0.8,1.56,0.00,-342.26,0.0,0,0,0,0,0,0.00,0.00,0.00,0.00,2.71,-203.50
2021-04-02 06:10:00,4.27,85.90,0.051,68.76,0.10,0.8,2.23,0.00,-342.59,0.0,0,0,0,0,0,0.00,0.00,0.00,0.00,3.00,-203.20
2021-04-02 06:20:00,4.27,85.80,0.066,111.50,0.12,0.8,1.56,0.00,-341.91,0.0,0,0,0,0,0,0.00,0.00,0.00,0.00,3.24,-202.20
2021-04-02 06:30:00,4.60,85.40,0.100,150.20,0.11,0.8,4.27,0.00,-342.25,0.0,0,0,0,0,0,0.00,0.00,0.00,0.00,3.74,-202.10
2021-04-02 06:40:00,4.60,84.80,0.156,208.50,0.20,0.8,5.62,0.00,-357.82,0.0,0,0,0,0,0,0.00,0.00,0.00,0.00,3.99,-202.20
2021-04-02 06:50:00,4.60,84.60,0.184,202.80,0.17,0.8,1.56,0.00,-358.50,0.0,0,0,0,0,0,0.00,0.00,0.00,0.00,4.31,-201.80
2021-04-02 07:00:00,4.93,84.50,0.222,216.70,0.15,0.8,5.96,0.00,-343.94,0.0,0,0,0,0,0,0.00,0.00,0.00,0.00,4.77,-201.40
2021-04-02 07:10:00,5.43,83.10,0.255,195.50,0.13,0.7,6.97,0.00,-343.26,0.0,0,0,0,0,0,0.00,0.00,0.00,0.00,5.26,-200.20
2021-04-02 07:20:00,5.84,82.30,0.295,199.40,0.13,0.7,5.96,0.00,-341.23,0.0,0,0,0,0,0,0.00,0.00,0.00,0.00,5.84,-200.00
2021-04-02 07:30:00,6.08,80.40,0.335,187.00,0.19,0.5,1.56,0.00,-339.88,0.0,0,0,0,0,0,0.00,0.00,0.00,0.00,6.21,-199.90
2021-04-02 07:40:00,6.41,77.83,0.365,208.00,0.17,0.5,0.88,0.00,-340.22,0.0,0,0,0,0,0,0.00,0.00,0.00,0.00,6.74,-199.00
2021-04-02 07:50:00,6.82,75.59,0.398,323.70,0.18,0.4,2.91,0.00,-338.19,0.0,0,0,0,0,0,0.00,0.00,0.00,0.00,7.07,-199.50
2021-04-02 08:00:00,7.56,72.58,0.438,0.00,0.18,0.3,0.88,0.00,-354.77,0.0,0,0,0,0,0,0.00,0.00,0.00,0.00,7.81,-199.20
2021-04-02 08:10:00,8.14,71.02,0.480,0.00,0.15,0.3,4.27,0.00,-339.54,0.0,0,0,0,0,0,0.00,0.00,0.00,0.00,9.79,-198.30
2021-04-02 08:20:00,8.63,68.42,0.491,0.00,0.14,0.1,5.96,0.00,-339.55,0.0,0,0,0,0,0,0.00,0.00,0.00,0.00,14.20,-196.80
2021-04-02 08:30:00,9.13,66.32,0.547,0.00,0.15,0.0,5.62,0.00,-338.53,0.0,0,0,0,0,0,0.00,0.00,0.00,0.00,15.48,-195.00
2021-04-02 08:40:00,9.95,63.17,0.564,0.00,0.16,0.0,1.56,0.00,-337.51,0.0,0,0,0,0,0,0.00,0.00,0.00,0.00,16.55,-193.10
2021-04-02 08:50:00,10.28,62.25,0.607,321.20,0.20,0.0,0.88,0.00,-335.14,0.0,0,0,0,0,0,0.00,0.00,0.00,0.00,18.54,-189.90
2021-04-02 09:00:00,11.27,60.29,0.631,13.26,0.17,0.0,1.56,0.00,-332.77,0.0,0,0,0,0,0,0.00,0.00,0.00,0.00,21.43,-188.90
2021-04-02 09:10:00,11.77,58.43,0.641,0.00,0.16,0.0,2.23,0.00,-331.42,0.0,0,0,0,0,0,0.00,0.00,0.00,0.00,22.14,-189.00